Regional Weather Roundup
Issued by NWS Columbia, SC

Home | Current Version | Previous Version | Text Only | Print | Product List | Glossary On
Versions: 1 2 3 4 5 6 7 8 9 10 11 12 13 14 15 16 17 18 19 20 21 22 23 24 25 26 27 28 29 30 31 32 33 34 35 36 37 38 39 40 41 42 43 44 45 46 47 48 49 50
000
ASUS42 KCAE 010110
RWRCAE
REGIONAL WEATHER ROUNDUP
NATIONAL WEATHER SERVICE COLUMBIA SC
900 PM EDT FRI JUL 31 2015

NOTE: "FAIR" INDICATES FEW OR NO CLOUDS BELOW 12,000 FEET WITH NO
SIGNIFICANT WEATHER AND/OR OBSTRUCTIONS TO VISIBILITY.

NOT ALL STATIONS ARE QUALITY CONTROLLED BY THE NATIONAL
WEATHER SERVICE. USE DATA WITH CAUTION...ESPECIALLY
DEWPOINT OBSERVATIONS.

SCZ001>056-GAZ040-063>065-077-010200-
...UPSTATE SOUTH CAROLINA...

CITY           SKY/WX    TMP DP  RH WIND       PRES   REMARKS
ANDERSON       FAIR      83  69  62 NE3       29.93R
SPARTANBURG      N/A     81  73  78 CALM      29.93S
CLEMSON        FAIR      86  68  54 CALM      29.95R
GREENVILLE     MOCLDY    86  63  45 N10       29.96R
GREENWOOD      FAIR      82  69  64 CALM      29.93S
GREER          MOCLDY    81  66  60 N5        29.93S
ROCK HILL      FAIR      78  63  59 CALM      29.95R
CHESTER        FAIR      81  64  57 CALM      29.95R
LAURENS        FAIR      81  72  74 NE3       29.93S


...CENTRAL SOUTH CAROLINA...

CITY           SKY/WX    TMP DP  RH WIND       PRES   REMARKS
COLUMBIA APT   FAIR      85  71  63 S6        29.90R
COLUMBIA OWENS MOCLDY    84  72  67 VRB5      29.92R
DARLINGTON     MOCLDY    88  66  48 N6        29.92R
FLORENCE       FAIR      81  71  71 S18G24    29.93R
MCENTIRE ANGB  PTCLDY    81  72  73 S3        29.92R
ORANGEBURG     FAIR      78  74  87 S3        29.93R
SUMTER SHAW    FAIR      84  72  66 SW6       29.90R
NEWBERRY       FAIR      81  68  65 NE5       29.95R
AIKEN          FAIR      82  70  65 S5        29.96R
BARNWELL       FAIR      82  75  78 S3        29.93R
MANNING        RAIN      79  70  73 CALM      29.93R
CAMDEN         MOCLDY    84  68  58 CALM      29.92R
LANCASTER      FAIR      82  66  57 CALM      29.93S
WINNSBORO      FAIR      84  66  54 N3        29.93R


...EASTERN AND COASTAL SOUTH CAROLINA...

CITY           SKY/WX    TMP DP  RH WIND       PRES   REMARKS
MYRTLE BEACH   MOCLDY    81  73  78 W17       29.96R
N MYRTLE BCH   MOCLDY    83  77  82 W6        29.93R
CONWAY         TSTM      73  73 100 N5        29.95R
MARION         FAIR      79  72  78 SE8       29.95R THUNDER
HARTSVILLE     MOCLDY    86  63  45 N5        29.91R
FLORENCE       FAIR      81  71  71 S18G24    29.93R
DARLINGTON     MOCLDY    88  66  48 N6        29.92R
CHARLESTON APT MOCLDY    80  75  84 CALM      29.92R
MOUNT PLEASANT LGT RAIN  82  77  83 S6        29.92R
WALTERBORO     FAIR      77  75  94 CALM      29.93R
BEAUFORT       FAIR      79  75  87 CALM      29.93R


...EASTERN GEORGIA...

CITY           SKY/WX    TMP DP  RH WIND       PRES   REMARKS
AUGUSTA BUSH F PTCLDY    82  72  71 S7        29.90R
AUGUSTA DANIEL PTCLDY    84  72  67 S7        29.92R
THOMSON        PTCLDY    84  75  75 CALM      29.96R
WASHINGTON     FAIR      84  75  74 SW3       29.92R
SYLVANIA       CLOUDY    77  76  96 CALM      29.94R
STATESBORO     CLOUDY    75  32  20 CALM      29.93R
SAVANNAH       CLOUDY    77  75  93 CALM      29.94R


...SOUTHERN NORTH CAROLINA...

CITY           SKY/WX    TMP DP  RH WIND       PRES   REMARKS
CHARLOTTE      FAIR      86  52  30 NE6       29.95R
MONROE         FAIR      82  59  45 CALM      29.94R
WADESBORO      FAIR      84  61  45 N3        29.92R
ROCKINGHAM     FAIR      85  64  47 CALM      29.93R
RUTHERFORDTON  FAIR      82  58  43 NE5       29.97S
ASHEVILLE      FAIR      75  56  51 N9        30.05S

$$


USA.gov is the U.S. government's official web portal to all federal, state and local government web resources and services.